| time (UTC) | temp C | wind direction | speed KPH | gust KPH | rain 1hr cm | rain 24hr cm | rain mn cm | humidity % | barometer mb |
| 20260504213406 | 10 | 210 | 12.9 | 0.0 | 0.00 | 0.00 | 0.00 | 76 | 1016.0 |
| 20260504211850 | 10 | 210 | 12.9 | 0.0 | 0.00 | 0.00 | 0.00 | 82 | 1016.0 |
| 20260504210350 | 10 | 210 | 12.9 | 0.0 | 0.00 | 0.00 | 0.00 | 82 | 1016.0 |
| 20260504203352 | 11 | 210 | 16.1 | 0.0 | 0.00 | 0.00 | 0.00 | 77 | 1016.0 |
| 20260504200351 | 11 | 220 | 17.7 | 0.0 | 0.00 | 0.00 | 0.00 | 82 | 1016.0 |
| 20260504194851 | 12 | 210 | 16.1 | 0.0 | 0.00 | 0.00 | 0.00 | 77 | 1016.0 |
| 20260504193351 | 12 | 210 | 16.1 | 0.0 | 0.00 | 0.00 | 0.00 | 77 | 1016.0 |
| 20260504191850 | 12 | 220 | 14.5 | 0.0 | 0.00 | 0.00 | 0.00 | 77 | 1016.0 |
| 20260504190351 | 12 | 220 | 14.5 | 0.0 | 0.00 | 0.00 | 0.00 | 77 | 1016.0 |
| 20260504184848 | 13 | 210 | 14.5 | 0.0 | 0.00 | 0.00 | 0.00 | 77 | 1016.0 |
| 20260504183401 | 13 | 210 | 14.5 | 0.0 | 0.00 | 0.00 | 0.00 | 77 | 1016.0 |
| 20260504181850 | 17 | 310 | 8.0 | 0.0 | 0.00 | 0.00 | 0.00 | 43 | 1015.0 |
| 20260504180351 | 17 | 310 | 8.0 | 0.0 | 0.00 | 0.00 | 0.00 | 43 | 1015.0 |
| 20260504174851 | 17 | 350 | 8.0 | 0.0 | 0.00 | 0.00 | 0.00 | 46 | 1015.0 |
| 20260504173351 | 17 | 350 | 8.0 | 0.0 | 0.00 | 0.00 | 0.00 | 46 | 1015.0 |
| 20260504171850 | 18 | 4.8 | 0.0 | 0.00 | 0.00 | 0.00 | 43 | 1015.0 | |
| 20260504170350 | 18 | 4.8 | 0.0 | 0.00 | 0.00 | 0.00 | 43 | 1015.0 | |
| 20260504160351 | 21 | 3.2 | 0.0 | 0.00 | 0.00 | 0.00 | 40 | 1015.0 | |
| 20260504150350 | 21 | 130 | 11.3 | 0.0 | 0.00 | 0.00 | 0.00 | 40 | 1015.0 |
| 20260504140351 | 20 | 360 | 8.0 | 0.0 | 0.00 | 0.00 | 0.00 | 40 | 1015.0 |
| 20260504130350 | 20 | 300 | 16.1 | 0.0 | 0.00 | 0.00 | 0.00 | 40 | 1016.0 |
| 20260504110351 | 18 | 300 | 22.5 | 0.0 | 0.00 | 0.00 | 0.00 | 43 | 1017.0 |
| 20260504100350 | 17 | 290 | 22.5 | 0.0 | 0.00 | 0.00 | 0.00 | 43 | 1017.0 |
| 20260504081850 | 15 | 290 | 27.4 | 0.0 | 0.00 | 0.00 | 0.00 | 48 | 1018.0 |
| 20260504080350 | 15 | 290 | 27.4 | 0.0 | 0.00 | 0.00 | 0.00 | 48 | 1018.0 |
| 20260504070352 | 13 | 300 | 24.1 | 0.0 | 0.00 | 0.00 | 0.00 | 44 | 1018.0 |
| 20260504050400 | 7 | 3.2 | 0.0 | 0.00 | 0.00 | 0.00 | 71 | 1018.0 | |
| 20260504044851 | 6 | 340 | 3.2 | 0.0 | 0.00 | 0.00 | 0.00 | 81 | 1018.0 |
| 20260504043350 | 6 | 340 | 3.2 | 0.0 | 0.00 | 0.00 | 0.00 | 81 | 1018.0 |
| 20260504041851 | 5 | 4.8 | 0.0 | 0.00 | 0.00 | 0.00 | 81 | 1018.0 | |
| 20260504040350 | 5 | 4.8 | 0.0 | 0.00 | 0.00 | 0.00 | 81 | 1018.0 | |
| 20260504034851 | 6 | 3.2 | 0.0 | 0.00 | 0.00 | 0.00 | 76 | 1018.0 | |
| 20260504033350 | 6 | 3.2 | 0.0 | 0.00 | 0.00 | 0.00 | 76 | 1018.0 | |
| 20260504031847 | 5 | 3.2 | 0.0 | 0.00 | 0.00 | 0.00 | 76 | 1018.0 | |
| 20260504030513 | 5 | 3.2 | 0.0 | 0.00 | 0.00 | 0.00 | 76 | 1018.0 | |
| 20260504024848 | 5 | 270 | 11.3 | 0.0 | 0.00 | 0.00 | 0.00 | 76 | 1018.0 |
| 20260504023350 | 5 | 270 | 11.3 | 0.0 | 0.00 | 0.00 | 0.00 | 76 | 1018.0 |
| 20260504021847 | 3 | 270 | 9.7 | 0.0 | 0.00 | 0.00 | 0.00 | 81 | 1019.0 |
| 20260504020351 | 3 | 270 | 9.7 | 0.0 | 0.00 | 0.00 | 0.00 | 81 | 1019.0 |
| 20260504014850 | 5 | 11.3 | 0.0 | 0.00 | 0.00 | 0.00 | 70 | 1019.0 | |
| 20260504013355 | 5 | 11.3 | 0.0 | 0.00 | 0.00 | 0.00 | 70 | 1019.0 | |
| 20260504012012 | 6 | 310 | 9.7 | 0.0 | 0.00 | 0.00 | 0.00 | 71 | 1018.0 |
| 20260504010351 | 6 | 310 | 9.7 | 0.0 | 0.00 | 0.00 | 0.00 | 71 | 1018.0 |
| 20260504005012 | 6 | 280 | 4.8 | 0.0 | 0.00 | 0.00 | 0.00 | 71 | 1018.0 |
| 20260504003350 | 6 | 280 | 4.8 | 0.0 | 0.00 | 0.00 | 0.00 | 71 | 1018.0 |
| 20260504001850 | 7 | 230 | 11.3 | 0.0 | 0.00 | 0.00 | 0.00 | 71 | 1018.0 |
| 20260504000351 | 7 | 230 | 11.3 | 0.0 | 0.00 | 0.00 | 0.00 | 71 | 1018.0 |
| 20260503234927 | 7 | 230 | 12.9 | 0.0 | 0.00 | 0.00 | 0.00 | 66 | 1018.0 |
| 20260503233350 | 7 | 230 | 12.9 | 0.0 | 0.00 | 0.00 | 0.00 | 66 | 1018.0 |